User: anonymous   Login
Location: Unspecified
(0.0000°N, 0.0000°E)
Time: 09:13:54
(UTC+00:00)
Language:

Picosat 6 - Orbit

View from above orbital plane
View from above orbital plane
View from above satellite
View from above satellite

Ground track
Ground track

The orbit data is extracted from the following two-line orbital elements,

1 26094U 00004M   17085.00301573 +.00000144 +00000-0 +61453-4 0  9997
2 26094 100.2174 112.7440 0034824 078.6021 281.9071 14.42292398899000
Epoch (UTC): 26 March 2017 00:04:20
Eccentricity: 0.0034824
inclination: 100.2174°
perigee height: 726 km
apogee height: 776 km
right ascension of ascending node: 112.7440°
argument of perigee: 78.6021°
revolutions per day: 14.42292398
mean anomaly at epoch: 281.9071°
orbit number at epoch: 89900

The dashed part of the orbit path shows where the satellite is in the earth's shadow,  

DLR